Wiscasset, ME

3:29 PM EDT on September 22, 2017 (GMT -0400)
Wiscasset

Weather History for KIWI - August, 2013

Change the Weather History Date:

Sunday, August 25, 2013

  Actual Average Record
Temperature  
Mean Temperature 62 °F -  
Max Temperature 79 °F 74 °F 87 °F (2007)
Min Temperature 46 °F 52 °F 45 °F (2001)
Degree Days  
Heating Degree Days 3    
Growing Degree Days 12 (Base 50)    
Moisture  
Dew Point 51 °F    
Average Humidity 68    
Maximum Humidity 93    
Minimum Humidity 36    
Precipitation  
Precipitation 0.00 in - - ()
Sea Level Pressure  
Sea Level Pressure 30.28 in    
Wind  
Wind Speed 2 mph (SSW)    
Max Wind Speed 8 mph    
Max Gust Speed -    
Visibility 10 miles    
Events      
Averages and records for this station are not official NWS values.
T = Trace of Precipitation, MM = Missing Value Source: NWS Daily Summary

Daily Weather History Graph

Daily Weather History Graph

Search for Another Location

Airport or City:

Trip Planner

Search our weather history database for the weather conditions in past years. The results will help you decide how hot, cold, wet, or windy it might be!

Date:

Astronomy

Aug. 25, 2013 Rise Set
Actual Time 5:54 AM EDT 7:26 PM EDT
Civil Twilight 5:24 AM EDT 7:56 PM EDT
Nautical Twilight 4:47 AM EDT 8:33 PM EDT
Astronomical Twilight 4:08 AM EDT 9:12 PM EDT
Moon 9:42 PM EDT (8/25) 11:05 AM EDT (8/25)
Length of Visible Light 14h 32m
Length of Day
13h 32m
Waning Gibbous, 76% of the Moon is Illuminated
Aug 25
Waning Gibbous
Aug 28
Last Quarter
Sep 5
New
Sep 12
First Quarter
Sep 19
Full

Hourly Weather History & Observations

Time (EDT) Temp. Dew Point Humidity Pressure Visibility Wind Dir Wind Speed Gust Speed Precip Events Conditions
12:53 AM 51.1 °F 48.9 °F 92% 30.32 in 10.0 mi Calm Calm - N/A   Clear
1:53 AM 50.0 °F 48.0 °F 93% 30.31 in 10.0 mi Calm Calm - N/A   Clear
2:53 AM 48.9 °F 46.9 °F 93% 30.31 in 10.0 mi Calm Calm - N/A   Clear
3:53 AM 48.0 °F 46.0 °F 93% 30.31 in 10.0 mi Calm Calm - N/A   Clear
4:53 AM 48.0 °F 45.0 °F 89% 30.33 in 10.0 mi Calm Calm - N/A   Clear
5:53 AM 46.9 °F 45.0 °F 93% 30.35 in 10.0 mi Calm Calm - N/A   Clear
6:53 AM 51.1 °F 48.9 °F 92% 30.36 in 10.0 mi Calm Calm - N/A   Clear
7:53 AM 62.1 °F 55.9 °F 80% 30.37 in 10.0 mi Calm Calm - N/A   Clear
8:53 AM 68.0 °F 53.1 °F 59% 30.35 in 10.0 mi Calm Calm - N/A   Clear
9:53 AM 72.0 °F 52.0 °F 49% 30.35 in 10.0 mi NNE 3.5 mph - N/A   Clear
10:53 AM 73.9 °F 50.0 °F 43% 30.34 in 10.0 mi North 4.6 mph - N/A   Clear
11:53 AM 75.9 °F 48.0 °F 37% 30.31 in 10.0 mi Calm Calm - N/A   Clear
12:53 PM 77.0 °F 48.0 °F 36% 30.29 in 10.0 mi Variable 4.6 mph - N/A   Clear
1:53 PM 78.1 °F 50.0 °F 37% 30.28 in 10.0 mi Variable 4.6 mph - N/A   Clear
2:53 PM 75.0 °F 52.0 °F 44% 30.27 in 10.0 mi South 6.9 mph - N/A   Clear
3:53 PM 77.0 °F 52.0 °F 42% 30.25 in 10.0 mi SSW 8.1 mph - N/A   Clear
4:53 PM 75.0 °F 52.0 °F 44% 30.24 in 10.0 mi SW 5.8 mph - N/A   Clear
5:53 PM 73.0 °F 51.1 °F 46% 30.23 in 10.0 mi SSW 6.9 mph - N/A   Clear
6:53 PM 70.0 °F 52.0 °F 53% 30.21 in 10.0 mi South 4.6 mph - N/A   Clear
7:53 PM 66.0 °F 55.0 °F 68% 30.20 in 10.0 mi SSW 3.5 mph - N/A   Clear
8:53 PM 64.9 °F 57.0 °F 75% 30.21 in 10.0 mi SSW 3.5 mph - N/A   Clear
9:53 PM 62.1 °F 57.0 °F 84% 30.19 in 10.0 mi Calm Calm - N/A   Clear
10:53 PM 57.9 °F 55.9 °F 93% 30.18 in 10.0 mi Calm Calm - N/A   Clear
11:53 PM 57.9 °F 55.0 °F 90% 30.17 in 10.0 mi Calm Calm - N/A   Clear